Time,TemperatureF,DewpointF,PressureIn,WindDirection,WindDirectionDegrees,WindSpeedMPH,WindSpeedGustMPH,Humidity,HourlyPrecipIn,Conditions,Clouds,dailyrainin,SolarRadiationWatts/m^2,SoftwareType,DateUTC
2013-02-01 00:03:00,-11.8,-17.0,30.36,NNE,17,5.0,5.0,77,0.00,,SKC,0.00,0.00,VWS V14.00,2013-02-01 06:03:00,
2013-02-01 00:08:00,-11.9,-17.1,30.36,NNE,26,6.0,6.0,77,0.00,,SKC,0.00,0.00,VWS V14.00,2013-02-01 06:08:00,
2013-02-01 00:13:00,-11.9,-17.1,30.36,North,9,4.0,6.0,77,0.00,,SKC,0.00,0.00,VWS V14.00,2013-02-01 06:13:00,
2013-02-01 00:18:00,-12.0,-17.2,30.35,North,355,7.0,10.0,77,0.00,,SKC,0.00,0.00,VWS V14.00,2013-02-01 06:18:00,
2013-02-01 00:23:00,-12.0,-17.2,30.36,NNE,21,2.0,7.0,77,0.00,,SKC,0.00,0.00,VWS V14.00,2013-02-01 06:23:00,
2013-02-01 00:28:00,-12.1,-17.3,30.36,NNE,15,3.0,6.0,77,0.00,,SKC,0.00,0.00,VWS V14.00,2013-02-01 06:28:00,
2013-02-01 00:33:00,-12.1,-17.3,30.35,North,11,4.0,10.0,77,0.00,,SKC,0.00,0.00,VWS V14.00,2013-02-01 06:33:00,
2013-02-01 00:38:00,-12.2,-17.4,30.35,NNW,337,2.0,6.0,77,0.00,,SKC,0.00,0.00,VWS V14.00,2013-02-01 06:38:00,
2013-02-01 00:43:00,-12.2,-17.4,30.36,NE,34,3.0,7.0,77,0.00,,SKC,0.00,0.00,VWS V14.00,2013-02-01 06:43:00,
2013-02-01 00:48:00,-12.2,-17.4,30.36,NNE,22,4.0,5.0,77,0.00,,SKC,0.00,0.00,VWS V14.00,2013-02-01 06:48:00,
2013-02-01 00:53:00,-12.4,-17.5,30.35,NNE,22,2.0,3.0,77,0.00,,SKC,0.00,0.00,VWS V14.00,2013-02-01 06:53:00,
2013-02-01 00:58:00,-12.4,-17.5,30.35,NNW,341,1.0,3.0,77,0.00,,SKC,0.00,0.00,VWS V14.00,2013-02-01 06:58:00,
2013-02-01 01:03:00,-12.5,-17.6,30.36,NNW,341,1.0,3.0,77,0.00,,SKC,0.00,0.00,VWS V14.00,2013-02-01 07:03:00,
2013-02-01 01:08:00,-12.5,-17.6,30.35,NNW,341,1.0,2.0,77,0.00,,SKC,0.00,0.00,VWS V14.00,2013-02-01 07:08:00,
2013-02-01 01:13:00,-12.6,-17.8,30.35,NNW,341,1.0,3.0,77,0.00,,SKC,0.00,0.00,VWS V14.00,2013-02-01 07:13:00,
2013-02-01 01:19:00,-12.7,-17.9,30.35,NNW,341,1.0,2.0,77,0.00,,SKC,0.00,0.00,VWS V14.00,2013-02-01 07:19:00,
2013-02-01 01:24:00,-12.8,-17.9,30.35,NNW,341,2.0,2.0,77,0.00,,SKC,0.00,0.00,VWS V14.00,2013-02-01 07:24:00,
2013-02-01 01:29:00,-12.9,-18.0,30.35,NNW,331,2.0,2.0,77,0.00,,SKC,0.00,0.00,VWS V14.00,2013-02-01 07:29:00,
2013-02-01 01:34:00,-12.9,-17.8,30.35,North,355,3.0,3.0,78,0.00,,SKC,0.00,0.00,VWS V14.00,2013-02-01 07:34:00,
2013-02-01 01:39:00,-12.9,-17.8,30.35,North,355,2.0,2.0,78,0.00,,SKC,0.00,0.00,VWS V14.00,2013-02-01 07:39:00,
2013-02-01 01:44:00,-13.0,-17.9,30.35,North,349,1.0,3.0,78,0.00,,SKC,0.00,0.00,VWS V14.00,2013-02-01 07:44:00,
2013-02-01 01:49:00,-13.1,-18.0,30.35,North,350,1.0,2.0,78,0.00,,SKC,0.00,0.00,VWS V14.00,2013-02-01 07:49:00,
2013-02-01 01:54:00,-13.1,-18.0,30.35,North,350,1.0,1.0,78,0.00,,SKC,0.00,0.00,VWS V14.00,2013-02-01 07:54:00,
2013-02-01 01:59:00,-13.1,-18.0,30.35,North,350,1.0,2.0,78,0.00,,SKC,0.00,0.00,VWS V14.00,2013-02-01 07:59:00,
2013-02-01 02:04:00,-13.1,-18.0,30.35,NW,324,2.0,2.0,78,0.00,,SKC,0.00,0.00,VWS V14.00,2013-02-01 08:04:00,
2013-02-01 02:34:00,-13.4,-18.3,30.36,North,355,1.0,1.0,78,0.00,,SKC,0.00,0.00,VWS V14.00,2013-02-01 08:34:00,
2013-02-01 02:40:00,-13.5,-18.4,30.36,NNW,337,3.0,6.0,78,0.00,,SKC,0.00,0.00,VWS V14.00,2013-02-01 08:40:00,
2013-02-01 02:45:00,-13.6,-18.5,30.36,NW,306,3.0,4.0,78,0.00,,SKC,0.00,0.00,VWS V14.00,2013-02-01 08:45:00,
2013-02-01 02:50:00,-13.7,-18.6,30.36,North,351,5.0,5.0,78,0.00,,SKC,0.00,0.00,VWS V14.00,2013-02-01 08:50:00,
2013-02-01 02:55:00,-13.8,-18.4,30.36,NNW,340,2.0,3.0,79,0.00,,SKC,0.00,0.00,VWS V14.00,2013-02-01 08:55:00,
2013-02-01 03:00:00,-13.8,-18.4,30.36,North,355,2.0,5.0,79,0.00,,SKC,0.00,0.00,VWS V14.00,2013-02-01 09:00:00,
2013-02-01 03:05:00,-13.9,-18.5,30.36,North,350,1.0,5.0,79,0.00,,SKC,0.00,0.00,VWS V14.00,2013-02-01 09:05:00,
2013-02-01 03:10:00,-13.9,-18.5,30.35,NNW,348,2.0,4.0,79,0.00,,SKC,0.00,0.00,VWS V14.00,2013-02-01 09:10:00,
2013-02-01 03:15:00,-14.0,-18.6,30.36,NNW,338,1.0,4.0,79,0.00,,SKC,0.00,0.00,VWS V14.00,2013-02-01 09:15:00,
2013-02-01 03:20:00,-14.0,-18.6,30.36,NNW,338,2.0,4.0,79,0.00,,SKC,0.00,0.00,VWS V14.00,2013-02-01 09:20:00,
2013-02-01 03:25:00,-14.1,-18.7,30.36,NNW,338,2.0,4.0,79,0.00,,SKC,0.00,0.00,VWS V14.00,2013-02-01 09:25:00,
2013-02-01 03:30:00,-14.2,-18.6,30.37,NW,323,3.0,8.0,80,0.00,,SKC,0.00,0.00,VWS V14.00,2013-02-01 09:30:00,
2013-02-01 03:35:00,-14.2,-18.6,30.37,North,355,2.0,7.0,80,0.00,,SKC,0.00,0.00,VWS V14.00,2013-02-01 09:35:00,
2013-02-01 03:43:00,-14.2,-18.6,30.37,NW,317,0.0,6.0,80,0.00,,SKC,0.00,0.00,VWS V14.00,2013-02-01 09:43:00,
2013-02-01 03:48:00,-14.2,-18.6,30.37,NW,321,1.0,5.0,80,0.00,,SKC,0.00,0.00,VWS V14.00,2013-02-01 09:48:00,
2013-02-01 03:53:00,-14.2,-18.6,30.38,WNW,303,0.0,7.0,80,0.00,,SKC,0.00,0.00,VWS V14.00,2013-02-01 09:53:00,
2013-02-01 03:58:00,-14.2,-18.8,30.38,NW,314,2.0,6.0,79,0.00,,SKC,0.00,0.00,VWS V14.00,2013-02-01 09:58:00,
2013-02-01 04:03:00,-14.3,-18.9,30.38,NNW,333,0.0,6.0,79,0.00,,SKC,0.00,0.00,VWS V14.00,2013-02-01 10:03:00,
2013-02-01 04:08:00,-14.2,-18.8,30.38,NW,322,3.0,4.0,79,0.00,,SKC,0.00,0.00,VWS V14.00,2013-02-01 10:08:00,
2013-02-01 04:13:00,-14.2,-18.8,30.38,NW,325,6.0,7.0,79,0.00,,SKC,0.00,0.00,VWS V14.00,2013-02-01 10:13:00,
2013-02-01 04:18:00,-14.2,-18.8,30.37,NNW,327,2.0,5.0,79,0.00,,SKC,0.00,0.00,VWS V14.00,2013-02-01 10:18:00,
2013-02-01 04:23:00,-14.2,-18.8,30.37,NNW,327,1.0,5.0,79,0.00,,SKC,0.00,0.00,VWS V14.00,2013-02-01 10:23:00,
2013-02-01 04:28:00,-14.2,-18.8,30.37,WNW,298,4.0,8.0,79,0.00,,SKC,0.00,0.00,VWS V14.00,2013-02-01 10:28:00,
2013-02-01 04:33:00,-14.2,-18.8,30.37,NW,306,3.0,6.0,79,0.00,,SKC,0.00,0.00,VWS V14.00,2013-02-01 10:33:00,
2013-02-01 04:38:00,-14.2,-18.8,30.37,WNW,302,3.0,6.0,79,0.00,,SKC,0.00,0.00,VWS V14.00,2013-02-01 10:38:00,
2013-02-01 04:43:00,-14.2,-18.8,30.37,NNW,343,1.0,5.0,79,0.00,,SKC,0.00,0.00,VWS V14.00,2013-02-01 10:43:00,
2013-02-01 04:48:00,-14.2,-18.8,30.37,NNW,339,0.0,6.0,79,0.00,,SKC,0.00,0.00,VWS V14.00,2013-02-01 10:48:00,
2013-02-01 04:53:00,-14.2,-18.8,30.36,NNW,333,1.0,9.0,79,0.00,,SKC,0.00,0.00,VWS V14.00,2013-02-01 10:53:00,
2013-02-01 04:58:00,-14.2,-18.8,30.36,WNW,297,2.0,5.0,79,0.00,,SKC,0.00,0.00,VWS V14.00,2013-02-01 10:58:00,
2013-02-01 05:03:00,-14.3,-18.9,30.37,NW,325,1.0,4.0,79,0.00,,SKC,0.00,0.00,VWS V14.00,2013-02-01 11:03:00,
2013-02-01 05:08:00,-14.3,-18.9,30.37,NW,321,3.0,3.0,79,0.00,,SKC,0.00,0.00,VWS V14.00,2013-02-01 11:08:00,
2013-02-01 05:13:00,-14.3,-18.9,30.36,NW,304,0.0,1.0,79,0.00,,SKC,0.00,0.00,VWS V14.00,2013-02-01 11:13:00,
2013-02-01 05:18:00,-14.3,-18.9,30.36,NNE,24,4.0,4.0,79,0.00,,SKC,0.00,0.00,VWS V14.00,2013-02-01 11:18:00,
2013-02-01 05:23:00,-14.3,-18.9,30.36,NW,315,2.0,2.0,79,0.00,,SKC,0.00,0.00,VWS V14.00,2013-02-01 11:23:00,
2013-02-01 05:28:00,-14.4,-18.8,30.36,NNW,338,2.0,2.0,80,0.00,,SKC,0.00,0.00,VWS V14.00,2013-02-01 11:28:00,
2013-02-01 05:33:00,-14.3,-18.7,30.36,NNW,338,2.0,2.0,80,0.00,,SKC,0.00,0.00,VWS V14.00,2013-02-01 11:33:00,
2013-02-01 05:38:00,-14.3,-18.7,30.36,NNW,338,1.0,2.0,80,0.00,,SKC,0.00,0.00,VWS V14.00,2013-02-01 11:38:00,
2013-02-01 05:43:00,-14.3,-18.7,30.36,NNW,338,1.0,2.0,80,0.00,,SKC,0.00,0.00,VWS V14.00,2013-02-01 11:43:00,
2013-02-01 05:48:00,-14.3,-18.7,30.36,NNW,344,1.0,4.0,80,0.00,,SKC,0.00,0.00,VWS V14.00,2013-02-01 11:48:00,
2013-02-01 05:53:00,-14.3,-18.7,30.36,North,355,1.0,1.0,80,0.00,,SKC,0.00,0.00,VWS V14.00,2013-02-01 11:53:00,
2013-02-01 05:58:00,-14.3,-18.7,30.35,North,355,1.0,2.0,80,0.00,,SKC,0.00,0.00,VWS V14.00,2013-02-01 11:58:00,
2013-02-01 06:03:00,-14.3,-18.7,30.35,North,355,1.0,1.0,80,0.00,,SKC,0.00,0.00,VWS V14.00,2013-02-01 12:03:00,
2013-02-01 06:08:00,-14.3,-18.7,30.35,North,355,1.0,1.0,80,0.00,,SKC,0.00,0.00,VWS V14.00,2013-02-01 12:08:00,
2013-02-01 06:13:00,-14.4,-18.8,30.35,NNW,346,1.0,3.0,80,0.00,,SKC,0.00,0.00,VWS V14.00,2013-02-01 12:13:00,
2013-02-01 06:18:00,-14.4,-18.8,30.35,NNW,346,0.0,0.0,80,0.00,,SKC,0.00,0.00,VWS V14.00,2013-02-01 12:18:00,
2013-02-01 06:23:00,-14.4,-18.8,30.35,NNW,346,2.0,2.0,80,0.00,,SKC,0.00,0.00,VWS V14.00,2013-02-01 12:23:00,
2013-02-01 06:29:00,-14.4,-19.0,30.34,NNW,346,0.0,1.0,79,0.00,,SKC,0.00,0.00,VWS V14.00,2013-02-01 12:29:00,
2013-02-01 06:34:00,-14.5,-19.1,30.35,NNW,346,2.0,2.0,79,0.00,,SKC,0.00,0.00,VWS V14.00,2013-02-01 12:34:00,
2013-02-01 06:39:00,-14.6,-19.2,30.35,NNW,346,1.0,2.0,79,0.00,,SKC,0.00,0.00,VWS V14.00,2013-02-01 12:39:00,
2013-02-01 06:44:00,-14.6,-19.2,30.34,NNW,346,0.0,0.0,79,0.00,,SKC,0.00,0.00,VWS V14.00,2013-02-01 12:44:00,
2013-02-01 06:49:00,-14.7,-19.3,30.34,NNW,346,0.0,2.0,79,0.00,,SKC,0.00,0.00,VWS V14.00,2013-02-01 12:49:00,
2013-02-01 06:54:00,-14.7,-19.3,30.35,NNW,346,2.0,3.0,79,0.00,,SKC,0.00,0.00,VWS V14.00,2013-02-01 12:54:00,
2013-02-01 06:59:00,-14.8,-19.2,30.35,NNW,346,0.0,0.0,80,0.00,,SKC,0.00,0.00,VWS V14.00,2013-02-01 12:59:00,
2013-02-01 07:04:00,-14.8,-19.4,30.35,NNW,346,0.0,0.0,79,0.00,,SKC,0.00,0.00,VWS V14.00,2013-02-01 13:04:00,
2013-02-01 07:09:00,-14.8,-19.4,30.35,NNW,346,0.0,1.0,79,0.00,,SKC,0.00,0.00,VWS V14.00,2013-02-01 13:09:00,
2013-02-01 07:14:00,-14.8,-19.4,30.35,NNW,346,0.0,1.0,79,0.00,,SKC,0.00,0.00,VWS V14.00,2013-02-01 13:14:00,
2013-02-01 07:19:00,-14.9,-19.2,30.35,NNW,346,1.0,3.0,80,0.00,,SKC,0.00,0.00,VWS V14.00,2013-02-01 13:19:00,
2013-02-01 07:24:00,-14.9,-19.2,30.35,NNW,346,0.0,1.0,80,0.00,,SKC,0.00,0.00,VWS V14.00,2013-02-01 13:24:00,
2013-02-01 07:29:00,-14.9,-19.2,30.34,NNW,346,0.0,0.0,80,0.00,,SKC,0.00,0.00,VWS V14.00,2013-02-01 13:29:00,
2013-02-01 07:34:00,-15.0,-19.4,30.34,NNW,346,0.0,0.0,80,0.00,,SKC,0.00,0.00,VWS V14.00,2013-02-01 13:34:00,
2013-02-01 07:39:00,-15.1,-19.7,30.34,NNW,346,0.0,0.0,79,0.00,,SKC,0.00,5.00,VWS V14.00,2013-02-01 13:39:00,
2013-02-01 07:44:00,-15.2,-19.8,30.34,NNW,346,0.0,0.0,79,0.00,,SKC,0.00,7.00,VWS V14.00,2013-02-01 13:44:00,
2013-02-01 07:49:00,-15.2,-19.8,30.33,NNW,346,0.0,0.0,79,0.00,,SKC,0.00,9.00,VWS V14.00,2013-02-01 13:49:00,
2013-02-01 07:54:00,-15.3,-19.9,30.33,NNW,346,0.0,0.0,79,0.00,,SKC,0.00,12.00,VWS V14.00,2013-02-01 13:54:00,
2013-02-01 07:59:00,-15.4,-20.0,30.33,NNW,346,0.0,0.0,79,0.00,,SKC,0.00,16.00,VWS V14.00,2013-02-01 13:59:00,
2013-02-01 08:04:00,-15.4,-20.0,30.33,NNW,346,0.0,0.0,79,0.00,,SKC,0.00,19.00,VWS V14.00,2013-02-01 14:04:00,
2013-02-01 08:09:00,-15.3,-19.6,30.33,NNW,346,0.0,0.0,80,0.00,,SKC,0.00,23.00,VWS V14.00,2013-02-01 14:09:00,
2013-02-01 08:14:00,-15.1,-19.5,30.33,NNW,346,1.0,1.0,80,0.00,,SKC,0.00,26.00,VWS V14.00,2013-02-01 14:14:00,
2013-02-01 08:19:00,-14.9,-19.2,30.33,NNW,346,0.0,0.0,80,0.00,,SKC,0.00,39.00,VWS V14.00,2013-02-01 14:19:00,
2013-02-01 08:24:00,-14.5,-18.6,30.32,NNW,346,1.0,2.0,81,0.00,,SKC,0.00,51.00,VWS V14.00,2013-02-01 14:24:00,
2013-02-01 08:29:00,-14.1,-18.2,30.32,NNW,345,1.0,1.0,81,0.00,,SKC,0.00,60.00,VWS V14.00,2013-02-01 14:29:00,
2013-02-01 08:34:00,-13.6,-17.7,30.32,NNW,346,2.0,3.0,81,0.00,,SKC,0.00,69.00,VWS V14.00,2013-02-01 14:34:00,
2013-02-01 08:39:00,-13.3,-17.7,30.31,NNW,346,1.0,3.0,80,0.00,,SKC,0.00,81.00,VWS V14.00,2013-02-01 14:39:00,
2013-02-01 08:44:00,-12.9,-17.5,30.31,NNW,345,3.0,3.0,79,0.00,,SKC,0.00,95.00,VWS V14.00,2013-02-01 14:44:00,
2013-02-01 08:49:00,-12.6,-17.2,30.31,NNW,345,2.0,3.0,79,0.00,,SKC,0.00,111.00,VWS V14.00,2013-02-01 14:49:00,
2013-02-01 08:54:00,-12.3,-17.2,30.31,NNW,344,2.0,3.0,78,0.00,,SKC,0.00,130.00,VWS V14.00,2013-02-01 14:54:00,
2013-02-01 08:59:00,-12.0,-16.9,30.31,NW,322,3.0,3.0,78,0.00,,SKC,0.00,144.00,VWS V14.00,2013-02-01 14:59:00,
2013-02-01 09:04:00,-11.6,-16.5,30.32,NW,321,4.0,4.0,78,0.00,,SKC,0.00,155.00,VWS V14.00,2013-02-01 15:04:00,
2013-02-01 09:09:00,-11.2,-16.4,30.32,NW,321,2.0,3.0,77,0.00,,SKC,0.00,160.00,VWS V14.00,2013-02-01 15:09:00,
2013-02-01 09:14:00,-10.7,-15.9,30.31,NW,321,1.0,3.0,77,0.00,,SKC,0.00,176.00,VWS V14.00,2013-02-01 15:14:00,
2013-02-01 09:19:00,-10.1,-15.3,30.31,WSW,257,2.0,3.0,77,0.00,,SKC,0.00,199.00,VWS V14.00,2013-02-01 15:19:00,
2013-02-01 09:24:00,-9.7,-15.2,30.31,WSW,257,4.0,4.0,76,0.00,,SKC,0.00,209.00,VWS V14.00,2013-02-01 15:24:00,
2013-02-01 09:29:00,-9.3,-15.1,30.31,WSW,256,4.0,4.0,75,0.00,,SKC,0.00,230.00,VWS V14.00,2013-02-01 15:29:00,
2013-02-01 09:35:00,-9.0,-15.0,30.31,South,190,3.0,5.0,74,0.00,,SKC,0.00,241.00,VWS V14.00,2013-02-01 15:35:00,
2013-02-01 09:40:00,-8.8,-15.1,30.30,South,190,4.0,5.0,73,0.00,,SKC,0.00,248.00,VWS V14.00,2013-02-01 15:40:00,
2013-02-01 09:45:00,-8.5,-14.8,30.30,South,190,3.0,4.0,73,0.00,,SKC,0.00,250.00,VWS V14.00,2013-02-01 15:45:00,
2013-02-01 09:50:00,-8.3,-14.9,30.30,South,190,1.0,4.0,72,0.00,,SKC,0.00,255.00,VWS V14.00,2013-02-01 15:50:00,
2013-02-01 09:55:00,-7.9,-14.8,30.30,South,190,4.0,4.0,71,0.00,,SKC,0.00,276.00,VWS V14.00,2013-02-01 15:55:00,
2013-02-01 10:00:00,-7.6,-14.5,30.31,SW,215,3.0,5.0,71,0.00,,SKC,0.00,302.00,VWS V14.00,2013-02-01 16:00:00,
2013-02-01 10:05:00,-7.3,-14.5,30.31,SW,215,4.0,4.0,70,0.00,,SKC,0.00,325.00,VWS V14.00,2013-02-01 16:05:00,
2013-02-01 10:10:00,-7.0,-14.2,30.31,West,267,4.0,5.0,70,0.00,,SKC,0.00,339.00,VWS V14.00,2013-02-01 16:10:00,
2013-02-01 10:15:00,-7.2,-14.7,30.31,WSW,248,4.0,6.0,69,0.00,,SKC,0.00,341.00,VWS V14.00,2013-02-01 16:15:00,
2013-02-01 10:20:00,-7.2,-14.7,30.30,SSW,210,6.0,8.0,69,0.00,,SKC,0.00,332.00,VWS V14.00,2013-02-01 16:20:00,
2013-02-01 10:25:00,-7.0,-14.2,30.30,WSW,238,5.0,5.0,70,0.00,,SKC,0.00,366.00,VWS V14.00,2013-02-01 16:25:00,
2013-02-01 10:30:00,-6.9,-14.4,30.31,SW,218,4.0,6.0,69,0.00,,SKC,0.00,329.00,VWS V14.00,2013-02-01 16:30:00,
2013-02-01 10:35:00,-6.7,-14.2,30.31,WSW,237,4.0,6.0,69,0.00,,SKC,0.00,369.00,VWS V14.00,2013-02-01 16:35:00,
2013-02-01 10:40:00,-6.9,-14.4,30.31,SW,235,4.0,7.0,69,0.00,,SKC,0.00,399.00,VWS V14.00,2013-02-01 16:40:00,
2013-02-01 10:45:00,-6.8,-14.0,30.32,WSW,248,4.0,7.0,70,0.00,,SKC,0.00,404.00,VWS V14.00,2013-02-01 16:45:00,
2013-02-01 10:50:00,-6.6,-13.8,30.31,SW,236,5.0,6.0,70,0.00,,SKC,0.00,417.00,VWS V14.00,2013-02-01 16:50:00,
2013-02-01 10:55:00,-6.2,-13.4,30.31,SSW,202,4.0,10.0,70,0.00,,SKC,0.00,425.00,VWS V14.00,2013-02-01 16:55:00,
2013-02-01 11:00:00,-5.9,-13.1,30.31,SSW,193,4.0,7.0,70,0.00,,SKC,0.00,434.00,VWS V14.00,2013-02-01 17:00:00,
2013-02-01 11:05:00,-5.5,-12.7,30.31,SSW,212,4.0,7.0,70,0.00,,SKC,0.00,327.00,VWS V14.00,2013-02-01 17:05:00,
2013-02-01 11:10:00,-5.3,-12.8,30.31,SW,214,4.0,10.0,69,0.00,,SKC,0.00,345.00,VWS V14.00,2013-02-01 17:10:00,
2013-02-01 11:15:00,-4.9,-12.4,30.30,SSW,208,4.0,9.0,69,0.00,,SKC,0.00,390.00,VWS V14.00,2013-02-01 17:15:00,
2013-02-01 11:20:00,-4.7,-12.3,30.30,SSW,209,5.0,8.0,69,0.00,,SKC,0.00,355.00,VWS V14.00,2013-02-01 17:20:00,
2013-02-01 11:25:00,-4.7,-12.6,30.29,WSW,240,5.0,6.0,68,0.00,,SKC,0.00,480.00,VWS V14.00,2013-02-01 17:25:00,
2013-02-01 11:30:00,-4.3,-12.2,30.29,SSW,207,7.0,9.0,68,0.00,,SKC,0.00,339.00,VWS V14.00,2013-02-01 17:30:00,
2013-02-01 11:35:00,-4.3,-12.2,30.29,SSW,198,4.0,10.0,68,0.00,,SKC,0.00,371.00,VWS V14.00,2013-02-01 17:35:00,
2013-02-01 11:40:00,-4.3,-12.5,30.28,SSW,205,4.0,10.0,67,0.00,,SKC,0.00,369.00,VWS V14.00,2013-02-01 17:40:00,
2013-02-01 11:45:00,-4.0,-11.9,30.28,SSW,196,5.0,6.0,68,0.00,,SKC,0.00,406.00,VWS V14.00,2013-02-01 17:45:00,
2013-02-01 11:50:00,-3.6,-11.5,30.28,South,184,6.0,8.0,68,0.00,,SKC,0.00,381.00,VWS V14.00,2013-02-01 17:50:00,
2013-02-01 11:55:00,-3.6,-11.8,30.27,SSW,205,7.0,9.0,67,0.00,,SKC,0.00,369.00,VWS V14.00,2013-02-01 17:55:00,
2013-02-01 12:00:00,-3.6,-11.8,30.27,SSW,211,5.0,11.0,67,0.00,,SKC,0.00,345.00,VWS V14.00,2013-02-01 18:00:00,
2013-02-01 12:05:00,-3.6,-11.5,30.27,SSW,209,2.0,7.0,68,0.00,,SKC,0.00,369.00,VWS V14.00,2013-02-01 18:05:00,
2013-02-01 12:10:00,-3.5,-11.4,30.27,SW,225,4.0,8.0,68,0.00,,SKC,0.00,343.00,VWS V14.00,2013-02-01 18:10:00,
2013-02-01 12:15:00,-3.2,-11.1,30.26,SW,232,5.0,9.0,68,0.00,,SKC,0.00,366.00,VWS V14.00,2013-02-01 18:15:00,
2013-02-01 12:20:00,-3.0,-10.9,30.25,SSW,198,4.0,8.0,68,0.00,,SKC,0.00,443.00,VWS V14.00,2013-02-01 18:20:00,
2013-02-01 12:25:00,-2.6,-10.5,30.25,SSW,198,4.0,9.0,68,0.00,,SKC,0.00,345.00,VWS V14.00,2013-02-01 18:25:00,
2013-02-01 12:30:00,-2.4,-10.3,30.25,SSW,212,5.0,10.0,68,0.00,,SKC,0.00,323.00,VWS V14.00,2013-02-01 18:30:00,
2013-02-01 12:35:00,-2.5,-10.4,30.24,SW,226,5.0,7.0,68,0.00,,SKC,0.00,306.00,VWS V14.00,2013-02-01 18:35:00,
2013-02-01 12:41:00,-2.7,-10.6,30.23,SSW,198,4.0,11.0,68,0.00,,SKC,0.00,265.00,VWS V14.00,2013-02-01 18:41:00,
2013-02-01 12:46:00,-2.7,-10.3,30.23,SSW,206,6.0,11.0,69,0.00,,SKC,0.00,281.00,VWS V14.00,2013-02-01 18:46:00,
2013-02-01 12:51:00,-2.7,-10.3,30.23,SSW,197,6.0,11.0,69,0.00,,SKC,0.00,304.00,VWS V14.00,2013-02-01 18:51:00,
2013-02-01 12:56:00,-2.5,-9.9,30.23,WSW,246,6.0,8.0,70,0.00,,SKC,0.00,301.00,VWS V14.00,2013-02-01 18:56:00,
2013-02-01 13:01:00,-2.3,-9.7,30.23,SSW,200,10.0,10.0,70,0.00,,SKC,0.00,316.00,VWS V14.00,2013-02-01 19:01:00,
2013-02-01 13:06:00,-2.1,-9.5,30.22,SSW,196,7.0,9.0,70,0.00,,SKC,0.00,297.00,VWS V14.00,2013-02-01 19:06:00,
2013-02-01 13:11:00,-1.8,-8.9,30.22,SSW,198,6.0,10.0,71,0.00,,SKC,0.00,260.00,VWS V14.00,2013-02-01 19:11:00,
2013-02-01 13:16:00,-1.6,-8.7,30.22,SSW,206,6.0,10.0,71,0.00,,SKC,0.00,274.00,VWS V14.00,2013-02-01 19:16:00,
2013-02-01 13:21:00,-1.6,-8.7,30.22,South,190,6.0,11.0,71,0.00,,SKC,0.00,271.00,VWS V14.00,2013-02-01 19:21:00,
2013-02-01 13:26:00,-1.5,-8.6,30.21,SW,214,4.0,12.0,71,0.00,,SKC,0.00,269.00,VWS V14.00,2013-02-01 19:26:00,
2013-02-01 13:31:00,-1.4,-8.5,30.21,SSW,202,7.0,9.0,71,0.00,,SKC,0.00,288.00,VWS V14.00,2013-02-01 19:31:00,
2013-02-01 13:36:00,-1.1,-8.2,30.20,SSE,161,5.0,10.0,71,0.00,,SKC,0.00,264.00,VWS V14.00,2013-02-01 19:36:00,
2013-02-01 13:41:00,-1.0,-8.1,30.20,South,180,9.0,9.0,71,0.00,,SKC,0.00,237.00,VWS V14.00,2013-02-01 19:41:00,
2013-02-01 13:46:00,-1.0,-7.8,30.20,SSW,198,6.0,12.0,72,0.00,,SKC,0.00,225.00,VWS V14.00,2013-02-01 19:46:00,
2013-02-01 13:51:00,-1.0,-7.8,30.20,SSW,193,7.0,8.0,72,0.00,,SKC,0.00,225.00,VWS V14.00,2013-02-01 19:51:00,
2013-02-01 13:56:00,-0.9,-7.4,30.19,South,189,7.0,7.0,73,0.00,,SKC,0.00,193.00,VWS V14.00,2013-02-01 19:56:00,
2013-02-01 14:01:00,-0.8,-7.4,30.19,SSE,168,3.0,9.0,73,0.00,,SKC,0.00,218.00,VWS V14.00,2013-02-01 20:01:00,
2013-02-01 14:06:00,-0.8,-7.4,30.19,SSW,202,8.0,11.0,73,0.00,,SKC,0.00,220.00,VWS V14.00,2013-02-01 20:06:00,
2013-02-01 14:11:00,-0.8,-7.4,30.18,SSW,202,8.0,8.0,73,0.00,,SKC,0.00,220.00,VWS V14.00,2013-02-01 20:11:00,
2013-02-01 14:16:00,-0.3,-6.6,30.18,SSW,211,7.0,11.0,74,0.00,,SKC,0.00,227.00,VWS V14.00,2013-02-01 20:16:00,
2013-02-01 14:21:00,-0.1,-6.6,30.18,SSW,201,5.0,12.0,73,0.00,,SKC,0.00,195.00,VWS V14.00,2013-02-01 20:21:00,
2013-02-01 14:26:00,0.1,-6.2,30.17,SSW,198,5.0,14.0,74,0.00,,SKC,0.00,156.00,VWS V14.00,2013-02-01 20:26:00,
2013-02-01 14:31:00,0.2,-6.1,30.17,SSW,207,11.0,13.0,74,0.00,,SKC,0.00,132.00,VWS V14.00,2013-02-01 20:31:00,
2013-02-01 14:36:00,0.2,-6.1,30.17,SSW,196,9.0,14.0,74,0.00,,SKC,0.00,132.00,VWS V14.00,2013-02-01 20:36:00,
2013-02-01 14:41:00,0.4,-5.9,30.17,SSW,209,10.0,12.0,74,0.00,,SKC,0.00,149.00,VWS V14.00,2013-02-01 20:41:00,
2013-02-01 14:46:00,0.5,-5.5,30.17,SSW,210,5.0,11.0,75,0.00,,SKC,0.00,156.00,VWS V14.00,2013-02-01 20:46:00,
2013-02-01 14:51:00,0.7,-5.1,30.17,South,190,7.0,8.0,76,0.00,,SKC,0.00,146.00,VWS V14.00,2013-02-01 20:51:00,
2013-02-01 14:56:00,0.9,-4.9,30.17,South,186,11.0,11.0,76,0.00,,SKC,0.00,160.00,VWS V14.00,2013-02-01 20:56:00,
2013-02-01 15:01:00,1.1,-4.4,30.17,South,174,5.0,10.0,77,0.00,,SKC,0.00,160.00,VWS V14.00,2013-02-01 21:01:00,
2013-02-01 15:06:00,1.3,-4.2,30.16,South,177,5.0,12.0,77,0.00,,SKC,0.00,139.00,VWS V14.00,2013-02-01 21:06:00,
2013-02-01 15:12:00,1.4,-4.4,30.16,SW,220,6.0,13.0,76,0.00,,SKC,0.00,127.00,VWS V14.00,2013-02-01 21:12:00,
2013-02-01 15:17:00,1.3,-4.5,30.16,South,174,11.0,14.0,76,0.00,,SKC,0.00,93.00,VWS V14.00,2013-02-01 21:17:00,
2013-02-01 15:22:00,1.4,-4.1,30.16,SW,217,5.0,10.0,77,0.00,,SKC,0.00,98.00,VWS V14.00,2013-02-01 21:22:00,
2013-02-01 15:27:00,1.5,-4.0,30.16,SSW,194,10.0,12.0,77,0.00,,SKC,0.00,91.00,VWS V14.00,2013-02-01 21:27:00,
2013-02-01 15:32:00,1.5,-3.8,30.15,SSW,197,7.0,12.0,78,0.00,,SKC,0.00,88.00,VWS V14.00,2013-02-01 21:32:00,
2013-02-01 15:37:00,1.6,-3.4,30.15,SSE,159,11.0,11.0,79,0.00,,SKC,0.00,91.00,VWS V14.00,2013-02-01 21:37:00,
2013-02-01 15:42:00,1.6,-3.4,30.15,SSW,199,7.0,12.0,79,0.00,,SKC,0.00,84.00,VWS V14.00,2013-02-01 21:42:00,
2013-02-01 15:47:00,1.7,-3.3,30.15,SSW,205,6.0,13.0,79,0.00,,SKC,0.00,84.00,VWS V14.00,2013-02-01 21:47:00,
2013-02-01 15:52:00,1.8,-3.2,30.14,South,181,12.0,14.0,79,0.00,,SKC,0.00,90.00,VWS V14.00,2013-02-01 21:52:00,
2013-02-01 15:57:00,1.8,-2.9,30.14,South,175,7.0,13.0,80,0.00,,SKC,0.00,86.00,VWS V14.00,2013-02-01 21:57:00,
2013-02-01 16:02:00,1.8,-2.9,30.14,SSW,197,8.0,14.0,80,0.00,,SKC,0.00,83.00,VWS V14.00,2013-02-01 22:02:00,
2013-02-01 16:07:00,2.0,-2.7,30.14,SW,219,5.0,12.0,80,0.00,,SKC,0.00,83.00,VWS V14.00,2013-02-01 22:07:00,
2013-02-01 16:12:00,2.1,-2.6,30.14,South,182,5.0,13.0,80,0.00,,SKC,0.00,81.00,VWS V14.00,2013-02-01 22:12:00,
2013-02-01 16:17:00,2.2,-2.3,30.14,SSE,163,5.0,11.0,81,0.00,,SKC,0.00,62.00,VWS V14.00,2013-02-01 22:17:00,
2013-02-01 16:22:00,2.2,-2.3,30.13,SSE,163,5.0,5.0,81,0.00,,SKC,0.00,62.00,VWS V14.00,2013-02-01 22:22:00,
2013-02-01 16:27:00,2.2,-2.3,30.13,SSE,163,5.0,5.0,81,0.00,,SKC,0.00,62.00,VWS V14.00,2013-02-01 22:27:00,
2013-02-01 16:33:00,2.2,-2.3,30.13,SSE,163,5.0,5.0,81,0.00,,SKC,0.00,62.00,VWS V14.00,2013-02-01 22:33:00,
2013-02-01 16:48:00,1.8,-2.4,30.13,South,182,10.0,13.0,82,0.00,,SKC,0.00,33.00,VWS V14.00,2013-02-01 22:48:00,
2013-02-01 16:53:00,1.8,-2.2,30.14,South,173,5.0,12.0,83,0.00,,SKC,0.00,23.00,VWS V14.00,2013-02-01 22:53:00,
2013-02-01 16:58:00,1.8,-2.2,30.13,SSE,167,2.0,10.0,83,0.00,,SKC,0.00,14.00,VWS V14.00,2013-02-01 22:58:00,
2013-02-01 17:03:00,1.8,-2.2,30.13,South,177,4.0,10.0,83,0.00,,SKC,0.00,14.00,VWS V14.00,2013-02-01 23:03:00,
2013-02-01 17:08:00,1.8,-2.2,30.13,South,188,9.0,10.0,83,0.00,,SKC,0.00,7.00,VWS V14.00,2013-02-01 23:08:00,
2013-02-01 17:13:00,1.8,-2.2,30.13,South,188,4.0,11.0,83,0.00,,SKC,0.00,5.00,VWS V14.00,2013-02-01 23:13:00,
2013-02-01 17:19:00,1.7,-2.3,30.13,South,187,6.0,13.0,83,0.00,,SKC,0.00,0.00,VWS V14.00,2013-02-01 23:19:00,
2013-02-01 17:24:00,1.7,-2.0,30.12,SSE,161,5.0,10.0,84,0.00,,SKC,0.00,0.00,VWS V14.00,2013-02-01 23:24:00,
2013-02-01 17:29:00,1.7,-2.0,30.12,SSE,163,8.0,11.0,84,0.00,,SKC,0.00,0.00,VWS V14.00,2013-02-01 23:29:00,
2013-02-01 17:34:00,1.7,-2.0,30.12,SSE,160,5.0,8.0,84,0.00,,SKC,0.00,0.00,VWS V14.00,2013-02-01 23:34:00,
2013-02-01 17:39:00,1.8,-1.9,30.12,South,180,3.0,6.0,84,0.00,,SKC,0.00,0.00,VWS V14.00,2013-02-01 23:39:00,
2013-02-01 17:44:00,1.8,-1.9,30.11,South,190,10.0,10.0,84,0.00,,SKC,0.00,0.00,VWS V14.00,2013-02-01 23:44:00,
2013-02-01 17:49:00,1.8,-1.9,30.11,SSW,204,7.0,11.0,84,0.00,,SKC,0.00,0.00,VWS V14.00,2013-02-01 23:49:00,
2013-02-01 17:54:00,1.8,-1.9,30.11,South,178,5.0,10.0,84,0.00,,SKC,0.00,0.00,VWS V14.00,2013-02-01 23:54:00,
2013-02-01 17:59:00,1.9,-1.6,30.11,South,184,6.0,12.0,85,0.00,,SKC,0.00,0.00,VWS V14.00,2013-02-01 23:59:00,
2013-02-01 18:04:00,1.9,-1.6,30.10,SSE,168,6.0,12.0,85,0.00,,SKC,0.00,0.00,VWS V14.00,2013-02-02 00:04:00,
2013-02-01 18:09:00,1.9,-1.6,30.10,South,173,5.0,9.0,85,0.00,,SKC,0.00,0.00,VWS V14.00,2013-02-02 00:09:00,
2013-02-01 18:29:00,2.2,-1.3,30.12,SSW,194,5.0,5.0,85,0.00,,SKC,0.00,0.00,VWS V14.00,2013-02-02 00:29:00,
2013-02-01 18:36:00,2.4,-1.1,30.12,South,183,2.0,6.0,85,0.00,,SKC,0.00,0.00,VWS V14.00,2013-02-02 00:36:00,
2013-02-01 18:41:00,2.5,-1.0,30.12,SSE,158,3.0,4.0,85,0.00,,SKC,0.00,0.00,VWS V14.00,2013-02-02 00:41:00,
2013-02-01 18:46:00,2.6,-0.9,30.12,SSE,159,2.0,5.0,85,0.00,,SKC,0.00,0.00,VWS V14.00,2013-02-02 00:46:00,
2013-02-01 18:51:00,2.6,-0.9,30.12,South,171,1.0,5.0,85,0.00,,SKC,0.00,0.00,VWS V14.00,2013-02-02 00:51:00,
2013-02-01 18:56:00,2.7,-0.5,30.12,SSE,150,2.0,7.0,86,0.00,,SKC,0.00,0.00,VWS V14.00,2013-02-02 00:56:00,
2013-02-01 19:01:00,2.7,-0.5,30.12,SE,141,4.0,4.0,86,0.00,,SKC,0.00,0.00,VWS V14.00,2013-02-02 01:01:00,
2013-02-01 19:06:00,2.8,-0.4,30.12,SE,146,2.0,5.0,86,0.00,,SKC,0.00,0.00,VWS V14.00,2013-02-02 01:06:00,
2013-02-01 19:11:00,2.8,-0.4,30.12,SSE,148,4.0,4.0,86,0.00,,SKC,0.00,0.00,VWS V14.00,2013-02-02 01:11:00,
2013-02-01 19:16:00,2.9,-0.3,30.12,South,175,5.0,6.0,86,0.00,,SKC,0.00,0.00,VWS V14.00,2013-02-02 01:16:00,
2013-02-01 19:21:00,2.9,-0.3,30.12,SSE,157,2.0,3.0,86,0.00,,SKC,0.00,0.00,VWS V14.00,2013-02-02 01:21:00,
2013-02-01 19:26:00,3.1,-0.1,30.12,SE,137,1.0,5.0,86,0.00,,SKC,0.00,0.00,VWS V14.00,2013-02-02 01:26:00,
2013-02-01 19:31:00,3.1,-0.1,30.12,SSE,152,3.0,8.0,86,0.00,,SKC,0.00,0.00,VWS V14.00,2013-02-02 01:31:00,
2013-02-01 19:36:00,3.1,-0.4,30.12,SE,126,2.0,3.0,85,0.00,,SKC,0.00,0.00,VWS V14.00,2013-02-02 01:36:00,
2013-02-01 19:41:00,3.1,-0.4,30.12,SSE,148,2.0,3.0,85,0.00,,SKC,0.00,0.00,VWS V14.00,2013-02-02 01:41:00,
2013-02-01 19:46:00,3.1,-0.4,30.11,SE,136,2.0,4.0,85,0.00,,SKC,0.00,0.00,VWS V14.00,2013-02-02 01:46:00,
2013-02-01 19:51:00,3.0,-0.5,30.11,SE,135,2.0,3.0,85,0.00,,SKC,0.00,0.00,VWS V14.00,2013-02-02 01:51:00,
2013-02-01 19:56:00,3.0,-0.5,30.11,SE,141,1.0,6.0,85,0.00,,SKC,0.00,0.00,VWS V14.00,2013-02-02 01:56:00,
2013-02-01 20:01:00,3.0,-0.5,30.11,SSE,166,5.0,5.0,85,0.00,,SKC,0.00,0.00,VWS V14.00,2013-02-02 02:01:00,
2013-02-01 20:06:00,3.0,-0.2,30.11,SSE,153,0.0,5.0,86,0.00,,SKC,0.00,0.00,VWS V14.00,2013-02-02 02:06:00,
2013-02-01 20:11:00,3.0,-0.2,30.11,South,169,4.0,4.0,86,0.00,,SKC,0.00,0.00,VWS V14.00,2013-02-02 02:11:00,
2013-02-01 20:16:00,2.9,-0.3,30.11,SE,125,5.0,7.0,86,0.00,,SKC,0.00,0.00,VWS V14.00,2013-02-02 02:16:00,
2013-02-01 20:21:00,2.8,-0.7,30.11,ENE,67,2.0,3.0,85,0.00,,SKC,0.00,0.00,VWS V14.00,2013-02-02 02:21:00,
2013-02-01 20:26:00,2.8,-0.7,30.11,SSE,156,6.0,8.0,85,0.00,,SKC,0.00,0.00,VWS V14.00,2013-02-02 02:26:00,
2013-02-01 20:31:00,2.7,-0.5,30.11,South,176,0.0,3.0,86,0.00,,SKC,0.00,0.00,VWS V14.00,2013-02-02 02:31:00,
2013-02-01 20:36:00,2.7,-0.5,30.11,SSE,151,2.0,7.0,86,0.00,,SKC,0.00,0.00,VWS V14.00,2013-02-02 02:36:00,
2013-02-01 20:42:00,2.7,-0.5,30.11,SE,134,2.0,6.0,86,0.00,,SKC,0.00,0.00,VWS V14.00,2013-02-02 02:42:00,
2013-02-01 20:47:00,2.6,-0.6,30.11,SE,130,2.0,7.0,86,0.00,,SKC,0.00,0.00,VWS V14.00,2013-02-02 02:47:00,
2013-02-01 20:52:00,2.6,-0.9,30.11,SE,132,1.0,3.0,85,0.00,,SKC,0.00,0.00,VWS V14.00,2013-02-02 02:52:00,
2013-02-01 20:57:00,2.6,-0.6,30.11,SE,140,4.0,5.0,86,0.00,,SKC,0.00,0.00,VWS V14.00,2013-02-02 02:57:00,
2013-02-01 21:02:00,2.6,-0.6,30.11,SSE,166,5.0,7.0,86,0.00,,SKC,0.00,0.00,VWS V14.00,2013-02-02 03:02:00,
2013-02-01 21:07:00,2.5,-0.7,30.11,ENE,65,0.0,4.0,86,0.00,,SKC,0.00,0.00,VWS V14.00,2013-02-02 03:07:00,
2013-02-01 21:12:00,2.5,-1.0,30.11,SE,133,0.0,12.0,85,0.00,,SKC,0.00,0.00,VWS V14.00,2013-02-02 03:12:00,
2013-02-01 21:17:00,2.4,-1.1,30.10,ESE,105,3.0,8.0,85,0.00,,SKC,0.00,0.00,VWS V14.00,2013-02-02 03:17:00,
2013-02-01 21:22:00,2.4,-1.1,30.11,SE,139,2.0,3.0,85,0.00,,SKC,0.00,0.00,VWS V14.00,2013-02-02 03:22:00,
2013-02-01 21:27:00,2.4,-1.1,30.11,East,84,2.0,3.0,85,0.00,,SKC,0.00,0.00,VWS V14.00,2013-02-02 03:27:00,
2013-02-01 21:32:00,2.4,-1.1,30.11,SE,136,1.0,3.0,85,0.00,,SKC,0.00,0.00,VWS V14.00,2013-02-02 03:32:00,
2013-02-01 21:37:00,2.3,-0.9,30.11,ESE,122,1.0,4.0,86,0.00,,SKC,0.00,0.00,VWS V14.00,2013-02-02 03:37:00,
2013-02-01 21:42:00,2.3,-0.9,30.11,ESE,112,1.0,3.0,86,0.00,,SKC,0.00,0.00,VWS V14.00,2013-02-02 03:42:00,
2013-02-01 21:47:00,2.3,-1.2,30.11,ESE,117,2.0,5.0,85,0.00,,SKC,0.00,0.00,VWS V14.00,2013-02-02 03:47:00,
2013-02-01 21:52:00,2.3,-1.2,30.11,East,90,1.0,3.0,85,0.00,,SKC,0.00,0.00,VWS V14.00,2013-02-02 03:52:00,
2013-02-01 21:57:00,2.2,-1.3,30.11,East,90,2.0,2.0,85,0.00,,SKC,0.00,0.00,VWS V14.00,2013-02-02 03:57:00,
2013-02-01 22:02:00,2.2,-1.0,30.11,SE,129,2.0,4.0,86,0.00,,SKC,0.00,0.00,VWS V14.00,2013-02-02 04:02:00,
2013-02-01 22:07:00,2.2,-1.3,30.11,SE,137,1.0,4.0,85,0.00,,SKC,0.00,0.00,VWS V14.00,2013-02-02 04:07:00,
2013-02-01 22:12:00,2.2,-1.0,30.11,SE,137,2.0,2.0,86,0.00,,SKC,0.00,0.00,VWS V14.00,2013-02-02 04:12:00,
2013-02-01 22:17:00,2.1,-1.1,30.11,ESE,119,2.0,4.0,86,0.00,,SKC,0.00,0.00,VWS V14.00,2013-02-02 04:17:00,
2013-02-01 22:22:00,2.1,-1.4,30.11,East,100,0.0,2.0,85,0.00,,SKC,0.00,0.00,VWS V14.00,2013-02-02 04:22:00,
2013-02-01 22:27:00,2.1,-1.4,30.12,East,100,1.0,1.0,85,0.00,,SKC,0.00,0.00,VWS V14.00,2013-02-02 04:27:00,
2013-02-01 22:32:00,2.1,-1.1,30.12,ESE,117,0.0,4.0,86,0.00,,SKC,0.00,0.00,VWS V14.00,2013-02-02 04:32:00,
2013-02-01 22:37:00,2.1,-1.1,30.12,ESE,118,0.0,6.0,86,0.00,,SKC,0.00,0.00,VWS V14.00,2013-02-02 04:37:00,
2013-02-01 22:42:00,2.0,-1.5,30.12,SE,137,1.0,4.0,85,0.00,,SKC,0.00,0.00,VWS V14.00,2013-02-02 04:42:00,
2013-02-01 22:47:00,2.0,-1.5,30.12,SE,137,1.0,2.0,85,0.00,,SKC,0.00,0.00,VWS V14.00,2013-02-02 04:47:00,
2013-02-01 22:52:00,2.0,-1.2,30.12,SE,137,2.0,3.0,86,0.00,,SKC,0.00,0.00,VWS V14.00,2013-02-02 04:52:00,
2013-02-01 22:57:00,2.0,-1.2,30.12,SE,137,0.0,2.0,86,0.00,,SKC,0.00,0.00,VWS V14.00,2013-02-02 04:57:00,
2013-02-01 23:01:00,2.0,-1.5,30.12,SE,137,0.0,1.0,85,0.00,,SKC,0.00,0.00,VWS V14.00,2013-02-02 05:01:00,
2013-02-01 23:03:00,2.0,-1.5,30.12,SE,137,0.0,1.0,85,0.00,,SKC,0.00,0.00,VWS V14.00,2013-02-02 05:03:00,
2013-02-01 23:08:00,2.0,-1.5,30.12,SE,137,0.0,2.0,85,0.00,,SKC,0.00,0.00,VWS V14.00,2013-02-02 05:08:00,
2013-02-01 23:09:00,2.0,-1.5,30.13,SE,137,0.0,0.0,85,0.00,,SKC,0.00,0.00,VWS V14.00,2013-02-02 05:09:00,
2013-02-01 23:14:00,2.0,-1.2,30.13,SE,137,0.0,1.0,86,0.00,,SKC,0.00,0.00,VWS V14.00,2013-02-02 05:14:00,
2013-02-01 23:19:00,2.0,-1.5,30.13,SE,137,0.0,1.0,85,0.00,,SKC,0.00,0.00,VWS V14.00,2013-02-02 05:19:00,
2013-02-01 23:24:00,2.0,-1.5,30.13,SE,137,0.0,2.0,85,0.00,,SKC,0.00,0.00,VWS V14.00,2013-02-02 05:24:00,
2013-02-01 23:29:00,2.0,-1.5,30.14,SE,135,1.0,1.0,85,0.00,,SKC,0.00,0.00,VWS V14.00,2013-02-02 05:29:00,
2013-02-01 23:34:00,2.0,-1.5,30.14,SE,135,0.0,2.0,85,0.00,,SKC,0.00,0.00,VWS V14.00,2013-02-02 05:34:00,
2013-02-01 23:39:00,2.0,-1.5,30.13,ESE,112,0.0,2.0,85,0.00,,SKC,0.00,0.00,VWS V14.00,2013-02-02 05:39:00,
2013-02-01 23:44:00,1.9,-1.6,30.14,ESE,112,0.0,2.0,85,0.00,,SKC,0.00,0.00,VWS V14.00,2013-02-02 05:44:00,
2013-02-01 23:49:00,1.9,-1.6,30.13,ESE,112,1.0,1.0,85,0.00,,SKC,0.00,0.00,VWS V14.00,2013-02-02 05:49:00,
2013-02-01 23:54:00,1.8,-1.7,30.13,ESE,109,2.0,3.0,85,0.00,,SKC,0.00,0.00,VWS V14.00,2013-02-02 05:54:00,
2013-02-01 23:59:00,1.8,-1.7,30.14,ESE,109,0.0,0.0,85,0.00,,SKC,0.00,0.00,VWS V14.00,2013-02-02 05:59:00,